EW4670 Weather Reports


time (UTC)temp
C
wind
direction
speed
KPH
gust
KPH
rain 1hr
cm
rain 24hr
cm
rain mn
cm
humidity
%
barometer
mb
20260507210536 15 225 4.8 8.0 0.00 0.20 0.20 86 1015.3
20260507205537 15 217 1.6 6.4 0.00 0.20 0.20 86 1015.4
20260507204535 15 215 3.2 6.4 0.00 0.20 0.20 85 1015.2
20260507203536 15 208 1.6 6.4 0.00 0.20 0.20 85 1015.2
20260507202535 15 224 3.2 8.0 0.00 0.20 0.20 85 1015.2
20260507201535 15 213 3.2 6.4 0.00 0.23 0.20 84 1015.1
20260507200534 15 211 3.2 8.0 0.00 0.25 0.20 85 1015.0
20260507195555 15 214 3.2 8.0 0.00 0.25 0.20 84 1015.0
20260507194552 15 210 4.8 8.0 0.00 0.25 0.20 83 1014.9
20260507193552 15 225 1.6 6.4 0.00 0.25 0.20 82 1014.9
20260507192531 15 215 6.4 11.3 0.00 0.25 0.20 82 1014.9
20260507191532 15 218 4.8 8.0 0.00 0.25 0.20 82 1014.9
20260507190530 15 219 3.2 6.4 0.00 0.25 0.20 82 1014.9
20260507185531 15 223 3.2 8.0 0.00 0.25 0.20 81 1014.7
20260507184529 15 224 4.8 11.3 0.00 0.25 0.20 81 1014.8
20260507183530 15 222 1.6 4.8 0.00 0.25 0.20 83 1014.6
20260507182528 15 213 1.6 6.4 0.00 0.25 0.20 83 1014.5
20260507181548 15 244 1.6 1.6 0.00 0.25 0.20 82 1014.3
20260507180558 15 248 0.0 1.6 0.03 0.25 0.20 81 1014.1
20260507175527 15 255 1.6 4.8 0.03 0.25 0.20 80 1014.0
20260507174556 16 225 0.0 4.8 0.05 0.25 0.20 80 1013.7
20260507173526 16 222 0.0 4.8 0.05 0.25 0.20 81 1013.7
20260507172525 16 250 1.6 4.8 0.08 0.25 0.20 83 1013.7
20260507171556 16 318 1.6 4.8 0.08 0.25 0.20 85 1013.8
20260507170524 16 199 0.0 4.8 0.05 0.23 0.18 84 1013.7
20260507165525 16 262 0.0 1.6 0.05 0.23 0.18 83 1013.7
20260507164524 16 220 1.6 4.8 0.03 0.20 0.15 81 1013.8
20260507163523 17 203 4.8 8.0 0.03 0.20 0.15 80 1013.7
20260507162523 17 205 8.0 12.9 0.00 0.18 0.13 79 1013.7
20260507161553 17 207 6.4 11.3 0.00 0.18 0.13 78 1013.8
20260507160552 17 213 4.8 8.0 0.00 0.18 0.13 78 1013.7
20260507155543 17 214 3.2 11.3 0.00 0.18 0.13 77 1013.6
20260507154521 17 210 4.8 11.3 0.00 0.18 0.13 77 1013.6
20260507153541 17 227 3.2 6.4 0.03 0.18 0.13 75 1013.7
20260507152551 17 216 3.2 11.3 0.03 0.18 0.13 76 1013.7
20260507151520 17 207 3.2 8.0 0.03 0.18 0.13 77 1013.8
20260507150610 17 226 4.8 11.3 0.03 0.18 0.13 76 1013.7
20260507145540 17 227 6.4 17.7 0.03 0.18 0.13 77 1013.9
20260507144519 17 224 4.8 8.0 0.03 0.18 0.13 76 1013.7
20260507143548 17 243 4.8 6.4 0.00 0.15 0.10 74 1013.7
20260507142547 17 228 4.8 11.3 0.00 0.15 0.10 72 1013.7
20260507141547 17 227 6.4 16.1 0.00 0.15 0.10 71 1013.7
20260507140546 18 215 9.7 17.7 0.00 0.15 0.10 69 1013.8
20260507135547 19 230 11.3 22.5 0.00 0.15 0.10 60 1013.7
20260507134536 20 223 9.7 22.5 0.00 0.15 0.10 58 1013.6
20260507133547 20 211 8.0 16.1 0.00 0.15 0.10 57 1013.4
20260507132545 20 232 11.3 29.0 0.00 0.15 0.10 57 1013.4
20260507131545 20 228 11.3 29.0 0.00 0.15 0.10 56 1013.4
20260507130544 20 217 9.7 22.5 0.00 0.15 0.10 55 1013.4
20260507125544 20 211 8.0 22.5 0.00 0.15 0.10 55 1013.3
20260507124543 20 221 1.6 6.4 0.00 0.15 0.10 55 1013.3
20260507123544 20 244 1.6 11.3 0.00 0.15 0.10 55 1013.3
20260507122543 20 253 4.8 12.9 0.00 0.15 0.10 55 1013.3
20260507121604 20 253 8.0 16.1 0.00 0.15 0.10 55 1013.3
20260507120541 21 264 6.4 16.1 0.00 0.15 0.10 54 1013.3
20260507115542 21 260 4.8 11.3 0.00 0.15 0.10 54 1013.3
20260507114540 21 290 6.4 12.9 0.00 0.15 0.10 54 1013.3
20260507113540 21 251 8.0 19.3 0.00 0.15 0.10 52 1013.3
20260507112600 21 219 6.4 11.3 0.00 0.15 0.10 52 1013.2
20260507111541 21 209 11.3 17.7 0.00 0.15 0.10 52 1013.3
20260507110539 21 202 6.4 12.9 0.00 0.15 0.10 51 1013.3
20260507105540 21 221 9.7 19.3 0.00 0.15 0.10 52 1013.3
20260507104537 21 230 12.9 29.0 0.00 0.15 0.10 52 1013.3
20260507103538 21 240 4.8 16.1 0.00 0.15 0.10 54 1013.4
20260507102537 21 232 8.0 16.1 0.00 0.15 0.10 55 1013.4
20260507101558 21 223 4.8 12.9 0.00 0.15 0.10 55 1013.5
20260507100556 21 218 8.0 22.5 0.00 0.15 0.10 56 1013.5
20260507095536 21 186 4.8 19.3 0.00 0.15 0.10 56 1013.4
20260507094535 20 195 6.4 12.9 0.00 0.15 0.10 58 1013.5
20260507093536 21 209 4.8 12.9 0.00 0.15 0.10 58 1013.5
20260507092534 20 249 3.2 8.0 0.00 0.15 0.10 58 1013.4
20260507091534 20 228 4.8 8.0 0.00 0.15 0.10 59 1013.4
20260507090534 19 245 6.4 16.1 0.00 0.15 0.10 62 1013.4
20260507085554 19 252 8.0 16.1 0.00 0.15 0.10 63 1013.4
20260507084533 18 243 6.4 17.7 0.00 0.15 0.10 64 1013.3
20260507083533 18 220 8.0 17.7 0.00 0.15 0.10 66 1013.2
20260507082532 18 240 8.0 16.1 0.00 0.15 0.10 66 1013.2
20260507081532 18 210 8.0 17.7 0.00 0.15 0.10 66 1013.1
20260507080551 18 242 4.8 12.9 0.00 0.15 0.10 67 1013.0
20260507075530 18 215 8.0 16.1 0.00 0.15 0.10 67 1013.0
20260507074550 18 216 8.0 16.1 0.00 0.15 0.10 69 1013.0
20260507073530 17 214 9.7 17.7 0.00 0.15 0.10 69 1012.8
20260507072529 18 209 6.4 16.1 0.00 0.15 0.10 68 1012.7
20260507071530 17 209 8.0 17.7 0.00 0.15 0.10 70 1012.7
20260507070528 17 223 6.4 16.1 0.00 0.15 0.10 71 1012.7
20260507065528 17 219 9.7 17.7 0.00 0.15 0.10 73 1012.7
20260507064527 16 221 4.8 12.9 0.00 0.15 0.10 76 1012.7
20260507063527 16 216 9.7 16.1 0.00 0.15 0.10 75 1012.7
20260507062526 16 210 6.4 11.3 0.00 0.15 0.10 77 1012.7
20260507061526 16 235 3.2 6.4 0.00 0.15 0.10 78 1012.7
20260507060526 16 208 4.8 11.3 0.00 0.15 0.10 79 1012.6
20260507055526 15 224 4.8 11.3 0.00 0.15 0.10 80 1012.5
20260507054545 15 211 4.8 8.0 0.00 0.15 0.10 80 1012.4
20260507053525 15 216 4.8 11.3 0.00 0.15 0.10 81 1012.4
20260507052525 15 211 4.8 12.9 0.00 0.15 0.10 81 1012.2
20260507051554 15 213 4.8 11.3 0.00 0.15 0.10 81 1012.0
20260507050523 15 210 4.8 11.3 0.00 0.15 0.10 81 1011.9
20260507045523 15 210 1.6 6.4 0.00 0.15 0.10 82 1011.8
20260507044522 15 158 0.0 6.4 0.00 0.15 0.10 83 1011.7
20260507043652 15 195 0.0 6.4 0.00 0.15 0.10 83 1011.5
20260507042550 15 0.0 0.0 0.00 0.15 0.10 84 1011.3
20260507041620 15 223 1.6 6.4 0.00 0.15 0.10 84 1011.2
20260507040519 15 198 6.4 11.3 0.00 0.15 0.10 84 1011.2
20260507035519 15 211 4.8 11.3 0.00 0.15 0.10 84 1011.2
20260507034518 15 213 8.0 16.1 0.00 0.15 0.10 83 1011.1
20260507033548 15 215 8.0 16.1 0.00 0.15 0.10 83 1010.9
20260507032518 15 226 8.0 16.1 0.00 0.15 0.10 81 1010.9
20260507031547 15 220 6.4 17.7 0.00 0.15 0.10 81 1010.9
20260507030547 15 216 8.0 17.7 0.00 0.15 0.10 81 1010.9
20260507025515 15 235 3.2 8.0 0.00 0.15 0.10 81 1011.0
20260507024545 15 256 4.8 16.1 0.00 0.15 0.10 81 1011.0
20260507023545 15 225 4.8 12.9 0.00 0.15 0.10 81 1010.9
20260507022544 15 232 4.8 8.0 0.00 0.15 0.10 82 1011.0
20260507021544 15 255 3.2 6.4 0.00 0.15 0.10 82 1010.8
20260507020543 15 248 3.2 8.0 0.00 0.15 0.10 82 1010.8
20260507015543 16 238 3.2 8.0 0.00 0.15 0.10 82 1010.8
20260507014543 15 256 3.2 8.0 0.00 0.15 0.10 82 1010.9
20260507013543 16 247 3.2 11.3 0.00 0.15 0.10 82 1011.0
20260507012541 16 233 4.8 11.3 0.00 0.15 0.10 83 1011.0
20260507011541 15 245 3.2 6.4 0.00 0.15 0.10 85 1011.0
20260507010600 15 252 1.6 4.8 0.00 0.15 0.10 86 1011.0
20260507005540 15 225 0.0 4.8 0.00 0.15 0.10 85 1011.0
20260507004540 16 213 1.6 6.4 0.00 0.15 0.10 85 1011.0
20260507003540 16 215 1.6 6.4 0.00 0.15 0.10 85 1011.0
20260507002538 16 221 3.2 11.3 0.00 0.15 0.10 86 1011.1
20260507001608 16 205 0.0 4.8 0.00 0.15 0.10 86 1011.2
20260507000537 16 215 0.0 4.8 0.08 0.15 0.10 86 1011.3
20260506235537 16 265 1.6 6.4 0.08 0.15 0.10 86 1011.5
20260506234627 15 258 3.2 6.4 0.08 0.15 0.10 87 1011.4
20260506233536 16 243 1.6 6.4 0.10 0.15 0.10 87 1011.5
20260506232556 16 256 3.2 8.0 0.10 0.15 0.10 86 1011.5
20260506231605 16 246 11.3 17.7 0.10 0.15 0.10 85 1011.7
20260506230534 16 221 11.3 25.7 0.03 0.08 0.03 82 1011.9
20260506225534 16 217 9.7 22.5 0.03 0.08 0.03 82 1011.9
20260506224533 16 215 9.7 19.3 0.03 0.08 0.03 82 1011.7
20260506223533 17 207 9.7 19.3 0.00 0.05 0.00 80 1011.6
20260506222552 17 221 9.7 17.7 0.00 0.05 0.00 79 1011.1
20260506221613 17 232 4.8 11.3 0.00 0.05 0.00 80 1010.8
20260506220532 17 237 4.8 12.9 0.00 0.05 0.00 80 1010.7
20260506215531 17 226 4.8 11.3 0.00 0.05 0.05 79 1010.8
20260506214530 17 231 3.2 11.3 0.00 0.05 0.05 80 1010.8
20260506213530 17 218 4.8 16.1 0.00 0.05 0.05 80 1010.9
20260506212550 17 228 6.4 11.3 0.00 0.05 0.05 81 1010.8
20260506211529 17 221 4.8 11.3 0.03 0.05 0.05 83 1010.8